This demonstration page uses our WeatherBlox Daily Observations layout. Learn more.

Left ArrowRight Arrow

39.12711, -84.51439

Hourly Observations for October 9, 2020

Temp ( °F °C ) Dew Point ( °F °C ) Humidity (%) Winds ( mph kmh ) Pressure ( in mb ) Visibility ( mi km ) Precip ( " mm )
12:53 am 00:53 Clear 49 9.4 48 8.9 97 97 Calm 30.16 1021 10 16 0.00 0.00
1:53 am 01:53 Clear 50 10 48 8.9 93 93 Calm 30.15 1021 10 16 0.00 0.00
2:53 am 02:53 Clear 48 8.9 47 8.3 96 96 Calm 30.15 1021 10 16 0.00 0.00
3:13 am 03:13 Clear with Mist and Fog 47 8.3 46 7.8 97 97 Calm 30.17 1022 1 2 0.00 0.00
3:24 am 03:24 Clear with Mist and Fog 47 8.3 45 7.2 93 93 Calm 30.16 1021 3 5 0.00 0.00
3:53 am 03:53 Clear with Mist and Fog 47 8.3 46 7.8 97 97 Calm 30.14 1021 6 10 0.00 0.00
4:53 am 04:53 Clear 47 8.3 45 7.2 93 93 ENE 3 6 30.14 1021 9 14 0.00 0.00
5:53 am 05:53 Clear 46 7.8 45 7.2 96 96 Calm 30.14 1021 7 11 0.00 0.00
6:53 am 06:53 Clear with Fog 45 7.2 44 6.7 97 97 Calm 30.16 1021 10 16 0.00 0.00
7:53 am 07:53 Sunny with Fog 45 7.2 43 6.1 93 93 NE 3 6 30.16 1021 10 16 0.00 0.00
8:53 am 08:53 Mostly Sunny 49 9.4 47 8.3 93 93 Calm 30.17 1022 10 16 0.00 0.00
9:53 am 09:53 Sunny 55 12.8 51 10.6 87 87 Calm 30.16 1021 10 16 0.00 0.00
10:53 am 10:53 Sunny 63 17.2 53 11.7 70 70 Calm 30.16 1021 10 16 0.00 0.00
11:53 am 11:53 Sunny 70 21.1 51 10.6 51 51 S 3 6 30.14 1021 10 16 0.00 0.00
12:53 pm 12:53 Sunny 75 23.9 49 9.4 40 40 SSE 6 9 30.11 1020 10 16 0.00 0.00
1:53 pm 13:53 Sunny 79 26.1 50 10 36 36 SE 7 11 30.08 1019 10 16 0.00 0.00
2:53 pm 14:53 Sunny 78 25.6 49 9.4 36 36 S 9 15 30.05 1018 10 16 0.00 0.00
3:53 pm 15:53 Sunny 79 26.1 49 9.4 35 35 S 5 7 30.03 1017 10 16 0.00 0.00
4:53 pm 16:53 Sunny 79 26.1 50 10 36 36 Calm 30.01 1016 10 16 0.00 0.00
5:53 pm 17:53 Sunny 77 25 56 13.3 48 48 Calm 30.01 1016 10 16 0.00 0.00
6:53 pm 18:53 Sunny 71 21.7 55 12.8 57 57 Calm 30.01 1016 10 16 0.00 0.00
7:53 pm 19:53 Clear 69 20.6 55 12.8 61 61 SSW 3 6 30.01 1016 10 16 0.00 0.00
8:53 pm 20:53 Clear 67 19.4 57 13.9 71 71 SW 3 6 30.02 1017 10 16 0.00 0.00
9:53 pm 21:53 Clear 70 21.1 61 16.1 73 73 SSW 9 15 30.01 1016 10 16 0.00 0.00
10:53 pm 22:53 Clear 70 21.1 60 15.6 71 71 SSW 8 13 30.01 1016 10 16 0.00 0.00
11:53 pm 23:53 Clear 66 18.9 60 15.6 81 81 S 5 7 30.01 1016 10 16 0.00 0.00

Powered by AerisWeather